Погода в Кокадое

Россия / Чеченская Республика     42°44′59″N   45°35′08″E
темп.,
°C
ветер,
м/с
пор.,
м/с
влажн.,
%
обл.,
%
осадки,
мм/ч
давл.,
гПа
погр.,
м
19 сентября, вс
вс1900:00+8ююз33856 0.0 101741
03:00+7ююз338573 0.0 101753
06:00+7ююз33854 0.0 101751
09:00+16ссв124899 0.0 1014907
12:00+18ссв3346100 0.0 10131232
15:00+16ссв326462 0.1 1014707
18:00+11ю018968 0.1 101513
21:00+10ююз337650 0.1 101541
20 сентября, пн
пн2000:00+10ююз33753 0.0 101553
03:00+9ююз33700 0.0 101554
06:00+9ююз32714 0.0 101631
09:00+16ссв21505 0.0 1014733
12:00+17ссв425199 0.1 10131213
15:00+15ссв327048 1.5 1014733
18:00+10св019292 1.3 101611
21:00+9ююз228933 1.3 101716
21 сентября, вт
вт2100:00+8юз22790 0.0 101720
03:00+7ююз22778 0.0 101818
06:00+7ююз32755 0.0 101828
09:00+15ссв21550 0.0 1016573
12:00+17ссв32507 0.0 10141095
15:00+16ссв3261100 0.1 1013829
18:00+11всв0185100 0.1 101416
21:00+10ююз3466100 0.1 101364
22 сентября, ср
ср2200:00+12ююз4561100 0.0 1012100
03:00+10юз3367100 0.0 101345
06:00+9ю1172100 0.0 101415
09:00+12св2170100 0.0 1013492
12:00+13ссв427574 0.1 1011679
15:00+10ссв3296100 0.9 1012310
18:00+9св119999 0.3 1012168
21:00+9ююв239699 3.5 1011141
23 сентября, чт
чт2300:00+8ю0198100 11.2 1011113
03:00+8с1199100 12.6 1011109
06:00+8ссв22100100 0.2 1010142
09:00+8сз1298100 7.9 1011216
12:00+9ссв119460 6.1 1009244
15:00+12всв138599 7.1 1007347
18:00+8ссз119999 1.5 100873
21:00+8в129696 2.0 100692